EW4427 Weather Reports


Display with metric or nautical units.
time (UTC)temp
F
wind
direction
speed
MPH
gust
MPH
rain 1hr
in
rain 24hr
in
rain mn
in
humidity
%
barometer
mb
20260831104044 70 0 0.0 0.0 0.00 0.01 0.00 94 1013.7
20260831103544 70 0 0.0 0.0 0.00 0.01 0.00 94 1013.9
20260831103101 70 0 0.0 0.0 0.00 0.01 0.00 94 1013.6
20260831102547 70 0 0.0 0.0 0.00 0.01 0.00 94 1013.9
20260831102044 70 0 0.0 0.0 0.00 0.01 0.00 94 1013.8
20260831101615 70 0 0.0 0.0 0.00 0.01 0.00 94 1013.7
20260831101044 70 0 0.0 0.0 0.00 0.01 0.00 93 1013.6
20260831100543 70 0 0.0 0.0 0.00 0.01 0.00 93 1013.4
20260831100111 70 0 0.0 0.0 0.00 0.01 0.00 93 1013.6
20260831095545 69 0 0.0 0.0 0.00 0.01 0.00 93 1013.6
20260831095044 69 0 0.0 0.0 0.00 0.01 0.00 93 1013.7
20260831094601 69 0 0.0 0.0 0.00 0.01 0.00 93 1013.4
20260831094045 69 0 0.0 0.0 0.00 0.01 0.00 93 1013.3
20260831093547 69 0 0.0 0.0 0.00 0.01 0.00 92 1013.1
20260831093102 69 0 0.0 0.0 0.00 0.01 0.00 92 1013.1
20260831092544 69 0 0.0 0.0 0.00 0.01 0.00 92 1013.1
20260831092046 69 0 0.0 0.0 0.00 0.01 0.00 92 1013.0
20260831091602 69 0 0.0 0.0 0.00 0.01 0.00 92 1013.1
20260831091045 69 0 0.0 0.0 0.00 0.01 0.00 92 1013.2
20260831090544 69 0 0.0 0.0 0.00 0.01 0.00 92 1013.3
20260831090109 70 0 0.0 0.0 0.00 0.01 0.00 92 1013.3
20260831085545 70 0 0.0 0.0 0.00 0.01 0.00 92 1013.3
20260831085044 70 0 0.0 0.0 0.00 0.01 0.00 92 1013.3
20260831084600 70 0 0.0 0.0 0.00 0.01 0.00 92 1013.4
20260831084044 70 0 0.0 0.0 0.00 0.01 0.00 92 1013.4
20260831083543 70 0 0.0 0.0 0.00 0.01 0.00 92 1013.3
20260831083110 70 0 0.0 0.0 0.00 0.01 0.00 92 1013.4
20260831082544 70 0 0.0 0.0 0.00 0.01 0.00 92 1013.3
20260831082044 70 0 0.0 0.0 0.00 0.01 0.00 92 1013.3
20260831081601 70 0 0.0 0.0 0.00 0.01 0.00 92 1013.3
20260831081042 70 0 0.0 0.0 0.00 0.01 0.00 92 1013.4
20260831080544 70 0 0.0 0.0 0.00 0.01 0.00 92 1013.4
20260831080110 70 0 0.0 0.0 0.00 0.01 0.00 92 1013.4
20260831075541 70 0 0.0 0.0 0.00 0.01 0.00 92 1013.5
20260831075047 70 0 0.0 0.0 0.00 0.01 0.00 92 1013.5
20260831074602 70 0 0.0 0.0 0.00 0.01 0.00 92 1013.6
20260831074044 70 0 0.0 0.0 0.00 0.01 0.00 92 1013.7
20260831073543 70 0 0.0 0.0 0.00 0.01 0.00 91 1013.7
20260831073102 70 0 0.0 0.0 0.00 0.01 0.00 91 1013.7
20260831072544 70 0 0.0 0.0 0.00 0.01 0.00 91 1013.8
20260831072043 70 0 0.0 0.0 0.00 0.01 0.00 91 1014.0
20260831071603 70 0 0.0 0.0 0.00 0.01 0.00 91 1014.1
20260831071043 70 0 0.0 0.0 0.00 0.01 0.00 91 1014.1
20260831070544 70 0 0.0 0.0 0.00 0.01 0.00 91 1014.2
20260831070101 71 0 0.0 0.0 0.00 0.01 0.00 91 1014.2
20260831065546 71 0 0.0 0.0 0.00 0.01 0.00 91 1014.4
20260831065045 71 0 0.0 0.0 0.00 0.01 0.00 91 1014.3
20260831064604 71 0 0.0 0.0 0.00 0.01 0.00 91 1014.3
20260831064047 71 0 0.0 0.0 0.00 0.01 0.00 91 1014.4
20260831063547 71 0 0.0 0.0 0.00 0.01 0.00 91 1014.5
20260831063103 71 0 0.0 0.0 0.00 0.01 0.00 91 1014.4
20260831062546 71 0 0.0 0.0 0.00 0.01 0.00 91 1014.4
20260831062046 71 0 0.0 0.0 0.00 0.01 0.00 91 1014.5
20260831061607 71 0 0.0 0.0 0.00 0.01 0.00 91 1014.5
20260831061045 71 0 0.0 0.0 0.00 0.01 0.00 91 1014.5
20260831060545 71 0 0.0 0.0 0.00 0.01 0.00 90 1014.5
20260831060109 71 0 0.0 0.0 0.00 0.01 0.00 90 1014.4
20260831055546 71 0 0.0 0.0 0.00 0.01 0.00 90 1014.5
20260831055046 71 0 0.0 0.0 0.00 0.01 0.00 90 1014.4
20260831054604 71 0 0.0 0.0 0.00 0.01 0.00 90 1014.3
20260831054046 72 0 0.0 0.0 0.00 0.01 0.00 90 1014.4
20260831053547 72 0 0.0 0.0 0.00 0.01 0.00 90 1014.3
20260831053101 72 0 0.0 0.0 0.00 0.01 0.00 90 1014.4
20260831052547 72 0 0.0 0.0 0.00 0.01 0.00 89 1014.4
20260831052046 72 0 0.0 0.0 0.00 0.01 0.00 89 1014.3
20260831051613 72 0 0.0 0.0 0.00 0.01 0.00 89 1014.4
20260831051045 72 0 0.0 0.0 0.00 0.01 0.00 89 1014.2
20260831050544 72 0 0.0 0.0 0.00 0.01 0.00 89 1014.3
20260831050106 72 0 0.0 0.0 0.00 0.01 0.00 89 1014.2
20260831045545 72 0 0.0 0.0 0.00 0.01 0.01 89 1014.3
20260831045047 72 0 0.0 0.0 0.00 0.01 0.01 90 1014.1
20260831044601 72 0 0.0 0.0 0.00 0.01 0.01 90 1014.1
20260831044046 72 0 0.0 0.0 0.00 0.01 0.01 90 1014.1
20260831043545 72 0 0.0 5.0 0.00 0.01 0.01 90 1014.2
20260831043059 72 0 0.0 7.0 0.00 0.01 0.01 90 1014.1
20260831042547 72 185 3.0 8.0 0.00 0.01 0.01 90 1014.0
20260831042046 72 204 5.0 8.0 0.00 0.01 0.01 90 1013.8
20260831041621 72 184 3.0 7.0 0.00 0.01 0.01 90 1013.8
20260831041048 72 198 3.0 9.0 0.00 0.01 0.01 90 1013.9
20260831040547 72 190 4.0 9.0 0.00 0.01 0.01 90 1013.9
20260831040104 72 187 5.0 9.0 0.00 0.01 0.01 90 1013.8
20260831035545 72 188 4.0 9.0 0.00 0.01 0.01 90 1014.0
20260831035044 72 191 3.0 11.0 0.00 0.01 0.01 90 1014.0
20260831034601 72 191 7.0 11.0 0.00 0.01 0.01 90 1013.7
20260831034045 72 193 7.0 10.0 0.00 0.01 0.01 90 1013.8
20260831033544 72 190 7.0 10.0 0.00 0.01 0.01 90 1013.7
20260831033102 72 185 6.0 10.0 0.00 0.01 0.01 91 1013.4
20260831032546 72 178 6.0 8.0 0.00 0.01 0.01 91 1013.9
20260831032048 72 186 5.0 8.0 0.00 0.01 0.01 91 1014.3
20260831031601 72 181 4.0 7.0 0.00 0.01 0.01 90 1014.3
20260831031043 72 186 0.0 1.0 0.00 0.01 0.01 89 1014.5
20260831030545 72 0 0.0 1.0 0.00 0.01 0.01 89 1014.8
20260831030114 72 0 0.0 3.0 0.00 0.01 0.01 90 1014.7
20260831025544 72 0 0.0 5.0 0.00 0.01 0.01 90 1015.0
20260831025044 72 186 2.0 8.0 0.00 0.01 0.01 90 1014.7
20260831024638 72 196 3.0 8.0 0.00 0.01 0.01 90 1014.7
20260831024046 72 185 4.0 8.0 0.00 0.01 0.01 90 1014.4
20260831023546 72 190 2.0 9.0 0.00 0.01 0.01 89 1014.3
20260831023100 72 183 2.0 11.0 0.00 0.01 0.01 90 1014.5
20260831022543 72 179 4.0 11.0 0.00 0.01 0.01 90 1014.5
20260831022043 72 200 7.0 11.0 0.00 0.01 0.01 90 1014.0
20260831021604 72 184 6.0 11.0 0.00 0.01 0.01 90 1014.2
20260831021044 72 187 6.0 11.0 0.00 0.01 0.01 91 1014.2
20260831020546 72 194 4.0 7.0 0.00 0.01 0.01 91 1014.3
20260831020059 72 194 3.0 11.0 0.00 0.01 0.01 91 1014.4
20260831015545 72 188 5.0 11.0 0.00 0.01 0.01 91 1014.5
20260831015045 72 185 7.0 11.0 0.00 0.01 0.01 92 1014.0
20260831014612 71 186 4.0 13.0 0.00 0.01 0.01 91 1014.3
20260831014046 71 202 5.0 13.0 0.00 0.01 0.01 92 1014.5
20260831013546 71 182 4.0 10.0 0.00 0.01 0.01 91 1014.3
20260831013113 71 180 4.0 6.0 0.00 0.01 0.01 92 1014.7
20260831012546 71 189 3.0 6.0 0.00 0.01 0.01 91 1014.7
20260831012047 71 186 2.0 6.0 0.00 0.01 0.01 91 1014.8
20260831011605 71 195 1.0 6.0 0.00 0.01 0.01 91 1014.8
20260831011046 71 176 3.0 7.0 0.00 0.01 0.01 91 1014.6
20260831010546 71 188 4.0 7.0 0.00 0.01 0.01 92 1014.3
20260831010105 71 193 4.0 8.0 0.00 0.01 0.01 92 1014.0
20260831005546 71 192 3.0 8.0 0.00 0.01 0.01 92 1014.0
20260831005046 71 202 4.0 8.0 0.00 0.01 0.01 92 1013.9
20260831004602 71 196 4.0 6.0 0.00 0.01 0.01 91 1014.1
20260831004046 71 188 2.0 5.0 0.00 0.01 0.01 91 1014.2
20260831003547 71 180 2.0 5.0 0.00 0.01 0.01 91 1014.2
20260831003059 71 200 2.0 5.0 0.00 0.01 0.01 91 1014.0
20260831002546 71 190 2.0 5.0 0.00 0.01 0.01 91 1013.9
20260831002046 72 200 3.0 6.0 0.00 0.01 0.01 91 1014.0
20260831001607 72 192 2.0 8.0 0.00 0.01 0.01 91 1013.9
20260831001046 72 184 3.0 8.0 0.00 0.01 0.01 91 1013.9
20260831000547 72 181 3.0 8.0 0.00 0.01 0.01 91 1013.7
20260831000105 72 190 3.0 10.0 0.00 0.01 0.01 91 1013.8
20260830235546 72 184 4.0 10.0 0.00 0.01 0.01 91 1013.6
20260830235046 72 191 5.0 10.0 0.00 0.01 0.01 91 1013.6
20260830234608 72 201 5.0 10.0 0.00 0.01 0.01 91 1013.6
20260830234049 72 207 6.0 10.0 0.00 0.01 0.01 91 1013.5
20260830233546 72 198 4.0 8.0 0.00 0.01 0.01 91 1013.5
20260830233106 72 178 4.0 7.0 0.00 0.01 0.01 91 1013.5
20260830232546 72 198 3.0 11.0 0.00 0.01 0.01 91 1013.7
20260830232047 72 181 4.0 11.0 0.00 0.01 0.01 91 1013.8
20260830231605 72 188 6.0 13.0 0.00 0.01 0.01 91 1013.6
20260830231049 72 190 7.0 13.0 0.00 0.01 0.01 91 1013.5
20260830230545 72 193 5.0 9.0 0.00 0.01 0.01 92 1013.7
20260830230104 72 201 5.0 9.0 0.00 0.01 0.01 92 1013.8
20260830225546 72 167 3.0 6.0 0.00 0.01 0.01 92 1013.9
20260830225046 72 186 2.0 4.0 0.00 0.01 0.01 92 1014.0
20260830224610 72 192 1.0 4.0 0.00 0.01 0.01 93 1013.9
20260830224046 72 173 1.0 6.0 0.00 0.01 0.01 93 1013.9
20260830223546 72 192 1.0 6.0 0.00 0.01 0.01 93 1013.8
20260830223105 72 199 3.0 6.0 0.00 0.01 0.01 93 1013.7
20260830222546 72 188 2.0 6.0 0.00 0.01 0.01 93 1013.8
20260830222046 72 195 2.0 5.0 0.00 0.01 0.01 93 1013.7
20260830221603 71 0 0.0 1.0 0.00 0.01 0.01 92 1013.8
20260830221046 71 0 0.0 2.0 0.00 0.01 0.01 92 1013.9
20260830220546 71 199 0.0 2.0 0.00 0.01 0.01 92 1013.9
20260830220103 71 199 0.0 2.0 0.00 0.01 0.01 92 1013.9
20260830215547 71 199 0.0 2.0 0.00 0.01 0.01 91 1014.0
20260830215048 71 0 0.0 1.0 0.00 0.01 0.01 91 1013.9
20260830214605 71 0 0.0 1.0 0.00 0.01 0.01 91 1013.8
20260830214048 71 0 0.0 1.0 0.00 0.01 0.01 90 1013.9
20260830213546 71 0 0.0 1.0 0.00 0.01 0.01 90 1013.8
20260830213057 71 0 0.0 2.0 0.00 0.01 0.01 90 1013.8
20260830212544 71 0 0.0 2.0 0.00 0.01 0.01 90 1013.7
20260830212046 71 199 0.0 4.0 0.00 0.01 0.01 90 1013.5
20260830211602 71 199 1.0 6.0 0.00 0.01 0.01 90 1013.6
20260830211044 72 195 2.0 6.0 0.00 0.01 0.01 90 1013.4
20260830210545 72 194 2.0 6.0 0.00 0.01 0.01 90 1013.5
20260830210101 72 0 0.0 4.0 0.00 0.01 0.01 89 1013.5
20260830205544 72 184 1.0 4.0 0.00 0.01 0.01 89 1013.6
20260830205044 72 173 0.0 4.0 0.00 0.01 0.01 89 1013.7
20260830204603 72 0 1.0 4.0 0.00 0.01 0.01 89 1013.7
20260830204049 72 199 2.0 3.0 0.00 0.01 0.01 89 1013.7
20260830203544 72 0 1.0 4.0 0.00 0.01 0.01 88 1013.5
20260830203123 72 185 1.0 5.0 0.00 0.01 0.01 88 1013.8
20260830202546 72 195 2.0 5.0 0.00 0.01 0.01 88 1013.8
20260830202043 72 169 2.0 6.0 0.00 0.01 0.01 88 1013.7
20260830201615 72 178 3.0 6.0 0.00 0.01 0.01 87 1013.8
20260830201045 73 191 3.0 5.0 0.00 0.01 0.01 87 1013.9
20260830200544 73 200 3.0 5.0 0.00 0.01 0.01 86 1013.9
20260830200057 73 200 2.0 7.0 0.00 0.01 0.01 85 1014.0
20260830195544 74 206 2.0 7.0 0.00 0.01 0.01 85 1014.0
20260830195044 74 178 3.0 6.0 0.00 0.01 0.01 84 1014.3
20260830194608 75 184 1.0 6.0 0.00 0.01 0.01 83 1014.4
20260830194044 75 180 1.0 6.0 0.00 0.01 0.01 83 1014.3
20260830193544 75 198 2.0 5.0 0.00 0.01 0.01 83 1014.3
20260830193106 75 186 1.0 5.0 0.00 0.01 0.01 82 1014.4
20260830192544 76 180 3.0 7.0 0.00 0.01 0.01 82 1014.2
20260830192044 76 191 3.0 7.0 0.00 0.01 0.01 80 1014.3
20260830191603 77 185 4.0 9.0 0.00 0.01 0.01 79 1014.3
20260830191044 77 180 3.0 10.0 0.00 0.01 0.01 78 1014.3
20260830190544 78 173 4.0 10.0 0.00 0.01 0.01 77 1014.3
20260830185544 79 178 4.0 10.0 0.00 0.01 0.01 74 1014.0
20260830185044 79 194 4.0 12.0 0.00 0.01 0.01 75 1013.9
20260830184559 79 175 6.0 12.0 0.00 0.01 0.01 74 1013.8
20260830184044 80 186 8.0 12.0 0.00 0.01 0.01 73 1013.6
20260830183545 80 169 4.0 13.0 0.00 0.01 0.01 74 1013.6
20260830183112 80 182 7.0 15.0 0.00 0.01 0.01 72 1013.7
20260830182545 80 176 6.0 15.0 0.00 0.01 0.01 71 1013.5
20260830182046 81 201 7.0 14.0 0.00 0.01 0.01 72 1013.4
20260830181625 81 195 6.0 14.0 0.00 0.01 0.01 71 1013.3
20260830181045 81 172 7.0 14.0 0.00 0.01 0.01 71 1013.2
20260830180545 81 178 7.0 12.0 0.00 0.01 0.01 70 1013.2
20260830180113 81 180 7.0 14.0 0.00 0.01 0.01 70 1013.0
20260830175545 81 187 6.0 14.0 0.00 0.01 0.01 70 1012.9
20260830175045 81 186 9.0 13.0 0.00 0.01 0.01 69 1012.8
20260830174617 82 185 5.0 9.0 0.00 0.01 0.01 69 1012.9
20260830174048 81 190 4.0 12.0 0.00 0.01 0.01 68 1012.9
20260830173545 81 188 6.0 17.0 0.00 0.01 0.01 67 1012.7
20260830173120 82 203 7.0 17.0 0.00 0.01 0.01 67 1012.8
20260830172547 82 200 10.0 17.0 0.00 0.01 0.01 66 1012.9
20260830172045 82 176 7.0 11.0 0.00 0.01 0.01 67 1013.1
20260830171619 82 189 6.0 14.0 0.00 0.01 0.01 67 1012.9
20260830171045 82 168 7.0 14.0 0.00 0.01 0.01 68 1012.9
20260830170548 82 182 6.0 11.0 0.00 0.01 0.01 69 1012.7
20260830170110 82 175 4.0 11.0 0.00 0.01 0.01 69 1012.9
20260830165546 81 197 5.0 11.0 0.00 0.01 0.01 71 1012.8
20260830165045 81 192 6.0 12.0 0.00 0.01 0.01 70 1013.0
20260830164621 81 186 5.0 12.0 0.00 0.01 0.01 71 1013.1
20260830164045 80 200 6.0 12.0 0.00 0.01 0.01 70 1013.1
20260830163545 80 181 6.0 11.0 0.00 0.01 0.01 71 1013.1
20260830163112 80 184 5.0 13.0 0.00 0.01 0.01 73 1013.1
20260830162546 80 170 6.0 13.0 0.00 0.01 0.01 73 1013.1
20260830162045 80 199 6.0 13.0 0.00 0.01 0.01 71 1013.1
20260830161604 79 200 6.0 14.0 0.00 0.01 0.01 71 1013.2
20260830161044 79 194 8.0 14.0 0.00 0.01 0.01 72 1013.2
20260830160545 79 229 6.0 11.0 0.00 0.01 0.01 75 1013.3
20260830160105 79 196 5.0 11.0 0.00 0.01 0.01 75 1013.4
20260830155545 78 186 4.0 9.0 0.00 0.01 0.01 76 1013.5
20260830155045 78 178 4.0 9.0 0.00 0.01 0.01 76 1013.4
20260830154601 77 186 3.0 8.0 0.00 0.01 0.01 77 1013.4
20260830154044 77 186 3.0 10.0 0.00 0.01 0.01 76 1013.4
20260830153546 77 196 4.0 13.0 0.00 0.01 0.01 78 1013.3
20260830153108 76 185 6.0 13.0 0.00 0.01 0.01 77 1013.2
20260830152545 76 184 5.0 10.0 0.00 0.01 0.01 79 1013.2
20260830152045 76 179 4.0 7.0 0.00 0.01 0.01 79 1013.1
20260830151605 75 194 3.0 10.0 0.00 0.01 0.01 80 1013.3
20260830151046 75 182 3.0 11.0 0.00 0.01 0.01 80 1013.3
20260830150546 75 202 4.0 12.0 0.00 0.01 0.01 80 1013.1
20260830150101 75 209 6.0 14.0 0.00 0.01 0.01 80 1013.1
20260830145545 74 183 7.0 14.0 0.00 0.01 0.01 81 1013.2
20260830145045 74 169 7.0 13.0 0.00 0.01 0.01 81 1013.3
20260830144604 74 193 5.0 14.0 0.00 0.01 0.01 82 1013.2
20260830144049 73 196 6.0 14.0 0.00 0.01 0.01 82 1013.0
20260830143546 73 182 7.0 14.0 0.00 0.01 0.01 83 1012.9
20260830143115 73 188 6.0 13.0 0.01 0.01 0.01 83 1013.0
20260830142546 72 186 7.0 14.0 0.01 0.01 0.01 84 1013.1
20260830142045 72 186 7.0 14.0 0.01 0.01 0.01 84 1013.2
20260830141602 72 188 8.0 14.0 0.01 0.01 0.01 85 1013.3
20260830141045 72 196 7.0 16.0 0.01 0.01 0.01 86 1013.5
20260830140545 71 178 6.0 16.0 0.01 0.01 0.01 86 1013.5
20260830140104 71 184 9.0 16.0 0.01 0.01 0.01 86 1013.3
20260830135545 71 188 9.0 15.0 0.01 0.01 0.01 87 1013.3
20260830135048 70 192 7.0 13.0 0.01 0.01 0.01 88 1013.5
20260830134623 70 184 7.0 15.0 0.01 0.01 0.01 88 1013.6
20260830134047 70 188 7.0 15.0 0.01 0.01 0.01 88 1013.6
20260830133549 70 171 7.0 12.0 0.01 0.01 0.01 89 1013.6
20260830133141 70 186 6.0 12.0 0.00 0.00 0.00 89 1013.7
20260830132545 69 186 6.0 12.0 0.00 0.00 0.00 89 1013.8
20260830132045 69 187 7.0 12.0 0.00 0.00 0.00 90 1013.8
20260830131616 69 189 6.0 12.0 0.00 0.00 0.00 90 1013.9
20260830131045 69 183 8.0 12.0 0.00 0.00 0.00 90 1013.9
20260830130545 69 188 7.0 12.0 0.00 0.00 0.00 90 1013.9
20260830130106 69 188 7.0 11.0 0.00 0.00 0.00 90 1013.8
20260830125545 69 182 6.0 13.0 0.00 0.00 0.00 90 1014.0
20260830125045 69 183 7.0 13.0 0.00 0.00 0.00 91 1014.1
20260830124618 69 194 7.0 11.0 0.00 0.00 0.00 91 1014.1
20260830124045 69 195 5.0 12.0 0.00 0.00 0.00 91 1014.2
20260830123545 69 180 4.0 12.0 0.00 0.00 0.00 91 1014.2
20260830123100 69 188 6.0 11.0 0.00 0.00 0.00 91 1014.2
20260830122544 69 188 5.0 10.0 0.00 0.00 0.00 91 1014.0
20260830122138 68 190 5.0 12.0 0.00 0.00 0.00 91 1014.0
20260830121603 68 188 4.0 12.0 0.00 0.00 0.00 91 1014.0
20260830121044 68 185 7.0 11.0 0.00 0.00 0.00 91 1013.9
20260830120545 68 188 5.0 13.0 0.00 0.00 0.00 90 1014.1
20260830115545 69 179 6.0 12.0 0.00 0.00 0.00 90 1014.2
20260830115046 69 181 6.0 14.0 0.00 0.00 0.00 90 1014.1
20260830114619 69 192 8.0 14.0 0.00 0.00 0.00 90 1014.0
20260830114045 69 184 6.0 12.0 0.00 0.00 0.00 89 1013.8
20260830113545 69 186 5.0 12.0 0.00 0.00 0.00 88 1013.9
20260830113103 69 174 6.0 13.0 0.00 0.00 0.00 88 1013.8
20260830112546 69 196 6.0 13.0 0.00 0.00 0.00 88 1013.9
20260830112046 70 203 7.0 12.0 0.00 0.00 0.00 86 1013.7
20260830111600 70 180 5.0 12.0 0.00 0.00 0.00 86 1013.9
20260830111045 70 176 6.0 12.0 0.00 0.00 0.00 85 1013.8
20260830110544 70 192 7.0 12.0 0.00 0.00 0.00 85 1013.4
20260830105549 70 200 8.0 14.0 0.00 0.00 0.00 84 1013.3
20260830105045 70 191 7.0 12.0 0.00 0.00 0.00 85 1013.2
20260830104601 70 184 6.0 12.0 0.00 0.00 0.00 84 1013.4